| time (UTC) | temp C | wind direction | speed KPH | gust KPH | rain 1hr cm | rain 24hr cm | rain mn cm | humidity % | barometer mb |
| 20260906125804 | 22 | 90 | 11.3 | 0.0 | 0.00 | 0.00 | 0.00 | 93 | 1018.5 |
| 20260906125306 | 22 | 100 | 12.9 | 0.0 | 0.00 | 0.00 | 0.00 | 93 | 1018.2 |
| 20260906124804 | 21 | 88 | 11.3 | 0.0 | 0.00 | 0.00 | 0.00 | 94 | 1018.2 |
| 20260906124303 | 21 | 89 | 8.0 | 0.0 | 0.00 | 0.00 | 0.00 | 94 | 1018.2 |
| 20260906123802 | 21 | 59 | 11.3 | 0.0 | 0.00 | 0.00 | 0.00 | 94 | 1018.0 |
| 20260906123303 | 21 | 97 | 12.9 | 0.0 | 0.00 | 0.00 | 0.00 | 94 | 1017.9 |
| 20260906122803 | 21 | 93 | 9.7 | 0.0 | 0.00 | 0.00 | 0.00 | 94 | 1017.9 |
| 20260906122305 | 21 | 98 | 9.7 | 0.0 | 0.00 | 0.00 | 0.00 | 94 | 1017.7 |
| 20260906121302 | 21 | 84 | 8.0 | 0.0 | 0.00 | 0.00 | 0.00 | 94 | 1017.4 |
| 20260906120300 | 21 | 107 | 9.7 | 0.0 | 0.00 | 0.00 | 0.00 | 93 | 1017.4 |
| 20260906115801 | 21 | 91 | 16.1 | 0.0 | 0.00 | 0.00 | 0.00 | 93 | 1017.4 |
| 20260906115300 | 21 | 77 | 4.8 | 0.0 | 0.00 | 0.00 | 0.00 | 93 | 1017.4 |
| 20260906114759 | 21 | 360 | 4.8 | 0.0 | 0.00 | 0.00 | 0.00 | 93 | 1017.1 |
| 20260906113259 | 21 | 89 | 6.4 | 0.0 | 0.00 | 0.00 | 0.00 | 93 | 1016.7 |
| 20260906112759 | 21 | 99 | 14.5 | 0.0 | 0.00 | 0.00 | 0.00 | 93 | 1016.7 |
| 20260906112259 | 21 | 98 | 6.4 | 0.0 | 0.00 | 0.00 | 0.00 | 93 | 1016.6 |
| 20260906111257 | 21 | 76 | 8.0 | 0.0 | 0.00 | 0.00 | 0.00 | 93 | 1016.8 |
| 20260906110758 | 21 | 75 | 6.4 | 0.0 | 0.00 | 0.00 | 0.00 | 93 | 1016.8 |
| 20260906110258 | 21 | 76 | 6.4 | 0.0 | 0.00 | 0.00 | 0.00 | 93 | 1016.6 |
| 20260906105257 | 21 | 80 | 3.2 | 0.0 | 0.00 | 0.00 | 0.00 | 93 | 1016.5 |
| 20260906104757 | 21 | 87 | 11.3 | 0.0 | 0.00 | 0.00 | 0.00 | 93 | 1016.5 |
| 20260906104256 | 21 | 82 | 4.8 | 0.0 | 0.00 | 0.00 | 0.00 | 93 | 1016.4 |
| 20260906103756 | 21 | 67 | 4.8 | 0.0 | 0.00 | 0.00 | 0.00 | 93 | 1016.3 |
| 20260906103256 | 21 | 72 | 6.4 | 0.0 | 0.00 | 0.00 | 0.00 | 93 | 1016.2 |
| 20260906102255 | 21 | 48 | 4.8 | 0.0 | 0.00 | 0.00 | 0.00 | 93 | 1016.2 |
| 20260906101754 | 21 | 63 | 8.0 | 0.0 | 0.00 | 0.00 | 0.00 | 93 | 1016.1 |
| 20260906100755 | 21 | 101 | 4.8 | 0.0 | 0.00 | 0.00 | 0.00 | 93 | 1016.0 |
| 20260906100254 | 21 | 91 | 4.8 | 0.0 | 0.00 | 0.00 | 0.00 | 93 | 1016.0 |
| 20260906095755 | 21 | 97 | 6.4 | 0.0 | 0.00 | 0.00 | 0.00 | 93 | 1016.0 |
| 20260906095254 | 21 | 67 | 6.4 | 0.0 | 0.00 | 0.00 | 0.00 | 93 | 1016.0 |
| 20260906094254 | 21 | 59 | 4.8 | 0.0 | 0.00 | 0.00 | 0.00 | 93 | 1016.0 |
| 20260906093752 | 21 | 61 | 8.0 | 0.0 | 0.00 | 0.00 | 0.00 | 93 | 1016.0 |
| 20260906093253 | 21 | 38 | 4.8 | 0.0 | 0.00 | 0.00 | 0.00 | 93 | 1016.1 |
| 20260906092752 | 21 | 44 | 3.2 | 0.0 | 0.00 | 0.00 | 0.00 | 93 | 1016.1 |
| 20260906092252 | 21 | 36 | 8.0 | 0.0 | 0.00 | 0.00 | 0.00 | 93 | 1016.1 |
| 20260906091752 | 21 | 42 | 1.6 | 0.0 | 0.00 | 0.00 | 0.00 | 93 | 1016.1 |
| 20260906091252 | 21 | 75 | 4.8 | 0.0 | 0.00 | 0.00 | 0.00 | 93 | 1016.1 |
| 20260906090251 | 21 | 105 | 1.6 | 0.0 | 0.00 | 0.00 | 0.00 | 93 | 1016.0 |
| 20260906085751 | 21 | 321 | 0.0 | 0.0 | 0.00 | 0.00 | 0.00 | 93 | 1016.0 |
| 20260906085250 | 21 | 88 | 0.0 | 0.0 | 0.00 | 0.00 | 0.00 | 93 | 1016.0 |
| 20260906084750 | 21 | 61 | 1.6 | 0.0 | 0.00 | 0.00 | 0.00 | 93 | 1016.0 |
| 20260906084250 | 21 | 268 | 0.0 | 0.0 | 0.00 | 0.00 | 0.00 | 93 | 1016.1 |
| 20260906083249 | 21 | 175 | 0.0 | 0.0 | 0.00 | 0.00 | 0.00 | 94 | 1016.0 |
| 20260906082749 | 21 | 88 | 4.8 | 0.0 | 0.00 | 0.00 | 0.00 | 94 | 1016.0 |
| 20260906082249 | 21 | 59 | 6.4 | 0.0 | 0.00 | 0.00 | 0.00 | 94 | 1016.0 |
| 20260906081749 | 21 | 42 | 1.6 | 0.0 | 0.00 | 0.00 | 0.00 | 94 | 1016.0 |
| 20260906081249 | 21 | 65 | 3.2 | 0.0 | 0.00 | 0.00 | 0.00 | 94 | 1016.1 |
| 20260906080748 | 21 | 65 | 1.6 | 0.0 | 0.00 | 0.00 | 0.00 | 94 | 1016.1 |
| 20260906080248 | 21 | 34 | 3.2 | 0.0 | 0.00 | 0.00 | 0.00 | 94 | 1016.0 |
| 20260906075247 | 21 | 31 | 6.4 | 0.0 | 0.00 | 0.00 | 0.00 | 94 | 1016.1 |
| 20260906074747 | 21 | 46 | 0.0 | 0.0 | 0.00 | 0.00 | 0.00 | 94 | 1016.2 |
| 20260906074247 | 21 | 24 | 3.2 | 0.0 | 0.00 | 0.00 | 0.00 | 94 | 1016.1 |
| 20260906073746 | 20 | 77 | 1.6 | 0.0 | 0.00 | 0.00 | 0.00 | 94 | 1016.2 |
| 20260906073246 | 20 | 49 | 0.0 | 0.0 | 0.00 | 0.00 | 0.00 | 94 | 1016.2 |
| 20260906072746 | 20 | 61 | 1.6 | 0.0 | 0.00 | 0.00 | 0.00 | 94 | 1016.2 |
| 20260906071244 | 20 | 46 | 1.6 | 0.0 | 0.00 | 0.00 | 0.00 | 94 | 1016.2 |
| 20260906070744 | 20 | 79 | 1.6 | 0.0 | 0.00 | 0.00 | 0.00 | 94 | 1016.2 |
| 20260906070245 | 20 | 61 | 3.2 | 0.0 | 0.00 | 0.00 | 0.00 | 94 | 1016.2 |
| 20260906064742 | 20 | 50 | 1.6 | 0.0 | 0.00 | 0.00 | 0.00 | 94 | 1016.2 |
| 20260906064243 | 20 | 13 | 1.6 | 0.0 | 0.00 | 0.00 | 0.00 | 94 | 1016.3 |
| 20260906063241 | 20 | 65 | 0.0 | 0.0 | 0.00 | 0.00 | 0.00 | 94 | 1016.4 |
| 20260906062742 | 20 | 65 | 0.0 | 0.0 | 0.00 | 0.00 | 0.00 | 94 | 1016.5 |
| 20260906062241 | 20 | 64 | 0.0 | 0.0 | 0.00 | 0.00 | 0.00 | 94 | 1016.5 |
| 20260906061742 | 20 | 64 | 0.0 | 0.0 | 0.00 | 0.00 | 0.00 | 94 | 1016.6 |
| 20260906061241 | 21 | 65 | 0.0 | 0.0 | 0.00 | 0.00 | 0.00 | 94 | 1016.6 |
| 20260906060240 | 21 | 64 | 0.0 | 0.0 | 0.00 | 0.00 | 0.00 | 94 | 1016.6 |
| 20260906054740 | 21 | 65 | 0.0 | 0.0 | 0.00 | 0.00 | 0.00 | 94 | 1016.4 |
| 20260906054239 | 21 | 39 | 0.0 | 0.0 | 0.00 | 0.00 | 0.00 | 94 | 1016.4 |
| 20260906053239 | 21 | 58 | 6.4 | 0.0 | 0.00 | 0.00 | 0.00 | 94 | 1016.3 |
| 20260906051737 | 21 | 72 | 4.8 | 0.0 | 0.00 | 0.00 | 0.00 | 94 | 1016.1 |
| 20260906051238 | 21 | 88 | 8.0 | 0.0 | 0.00 | 0.00 | 0.00 | 94 | 1016.0 |
| 20260906050236 | 21 | 97 | 16.1 | 0.0 | 0.00 | 0.00 | 0.00 | 94 | 1016.0 |
| 20260906045737 | 21 | 90 | 11.3 | 0.0 | 0.00 | 0.00 | 0.00 | 94 | 1015.8 |
| 20260906044736 | 21 | 81 | 8.0 | 0.0 | 0.00 | 0.00 | 0.00 | 94 | 1015.8 |
| 20260906044236 | 21 | 98 | 11.3 | 0.0 | 0.00 | 0.00 | 0.00 | 94 | 1015.6 |
| 20260906043736 | 21 | 89 | 11.3 | 0.0 | 0.00 | 0.00 | 0.00 | 94 | 1015.5 |
| 20260906043236 | 21 | 79 | 12.9 | 0.0 | 0.00 | 0.00 | 0.00 | 94 | 1015.6 |
| 20260906042736 | 21 | 97 | 4.8 | 0.0 | 0.00 | 0.00 | 0.00 | 94 | 1015.5 |
| 20260906042235 | 21 | 94 | 9.7 | 0.0 | 0.00 | 0.00 | 0.00 | 94 | 1015.5 |
| 20260906041316 | 21 | 86 | 6.4 | 0.0 | 0.00 | 0.00 | 0.00 | 94 | 1015.3 |
| 20260906041234 | 21 | 86 | 6.4 | 0.0 | 0.00 | 0.00 | 0.00 | 94 | 1015.3 |
| 20260906041041 | 21 | 94 | 6.4 | 0.0 | 0.00 | 0.00 | 0.00 | 94 | 1015.3 |
| 20260906040734 | 21 | 94 | 6.4 | 0.0 | 0.00 | 0.00 | 0.00 | 94 | 1015.3 |
| 20260906040233 | 21 | 98 | 11.3 | 0.0 | 0.00 | 0.00 | 0.00 | 94 | 1015.2 |
| 20260906035232 | 21 | 90 | 6.4 | 0.0 | 0.00 | 0.00 | 0.00 | 94 | 1015.1 |
| 20260906035132 | 21 | 80 | 6.4 | 0.0 | 0.00 | 0.00 | 0.00 | 94 | 1015.1 |
| 20260906034732 | 21 | 80 | 6.4 | 0.0 | 0.00 | 0.00 | 0.00 | 94 | 1015.1 |
| 20260906034507 | 22 | 111 | 11.3 | 0.0 | 0.00 | 0.00 | 0.00 | 94 | 1015.1 |
| 20260906034232 | 22 | 111 | 11.3 | 0.0 | 0.00 | 0.00 | 0.00 | 94 | 1015.1 |
| 20260906032732 | 22 | 90 | 12.9 | 0.0 | 0.00 | 0.00 | 0.00 | 93 | 1015.0 |
| 20260906032232 | 22 | 97 | 11.3 | 0.0 | 0.00 | 0.00 | 0.00 | 93 | 1014.9 |
| 20260906031730 | 22 | 82 | 11.3 | 0.0 | 0.00 | 0.00 | 0.00 | 93 | 1014.9 |
| 20260906031231 | 22 | 94 | 11.3 | 0.0 | 0.00 | 0.00 | 0.00 | 93 | 1014.9 |
| 20260906030231 | 22 | 92 | 9.7 | 0.0 | 0.00 | 0.00 | 0.00 | 94 | 1015.0 |
| 20260906025731 | 22 | 86 | 4.8 | 0.0 | 0.00 | 0.00 | 0.00 | 94 | 1015.0 |
| 20260906025552 | 22 | 85 | 4.8 | 0.0 | 0.00 | 0.00 | 0.00 | 94 | 1015.0 |
| 20260906025229 | 22 | 85 | 4.8 | 0.0 | 0.00 | 0.00 | 0.00 | 94 | 1015.0 |
| 20260906024230 | 22 | 83 | 4.8 | 0.0 | 0.00 | 0.00 | 0.00 | 94 | 1014.9 |
| 20260906023729 | 22 | 69 | 4.8 | 0.0 | 0.00 | 0.00 | 0.00 | 93 | 1014.7 |
| 20260906023228 | 22 | 69 | 6.4 | 0.0 | 0.00 | 0.00 | 0.00 | 94 | 1014.6 |
| 20260906022728 | 22 | 65 | 6.4 | 0.0 | 0.00 | 0.00 | 0.00 | 93 | 1014.6 |
| 20260906021227 | 22 | 89 | 4.8 | 0.0 | 0.00 | 0.00 | 0.00 | 93 | 1014.7 |
| 20260906020727 | 22 | 72 | 4.8 | 0.0 | 0.00 | 0.00 | 0.00 | 93 | 1014.7 |
| 20260906020226 | 23 | 68 | 6.4 | 0.0 | 0.00 | 0.00 | 0.00 | 92 | 1014.6 |
| 20260906015726 | 23 | 83 | 4.8 | 0.0 | 0.00 | 0.00 | 0.00 | 92 | 1014.5 |
| 20260906015226 | 23 | 69 | 6.4 | 0.0 | 0.00 | 0.00 | 0.00 | 92 | 1014.4 |
| 20260906014725 | 23 | 99 | 6.4 | 0.0 | 0.00 | 0.00 | 0.00 | 92 | 1014.3 |
| 20260906014226 | 23 | 94 | 4.8 | 0.0 | 0.00 | 0.00 | 0.00 | 92 | 1014.2 |
| 20260906013726 | 23 | 80 | 6.4 | 0.0 | 0.00 | 0.00 | 0.00 | 91 | 1014.2 |
| 20260906012726 | 23 | 80 | 11.3 | 0.0 | 0.00 | 0.00 | 0.00 | 91 | 1014.0 |
| 20260906012225 | 23 | 68 | 12.9 | 0.0 | 0.00 | 0.00 | 0.00 | 91 | 1014.0 |
| 20260906011725 | 24 | 70 | 6.4 | 0.0 | 0.00 | 0.00 | 0.00 | 91 | 1013.9 |
| 20260906011225 | 24 | 76 | 11.3 | 0.0 | 0.00 | 0.00 | 0.00 | 90 | 1013.9 |
| 20260906010723 | 24 | 64 | 9.7 | 0.0 | 0.00 | 0.00 | 0.00 | 90 | 1013.8 |
| 20260906010224 | 25 | 71 | 17.7 | 0.0 | 0.00 | 0.00 | 0.00 | 90 | 1013.7 |
| 20260906005724 | 25 | 93 | 14.5 | 0.0 | 0.00 | 0.00 | 0.00 | 90 | 1013.7 |
| 20260906003946 | 25 | 86 | 8.0 | 0.0 | 0.00 | 0.00 | 0.00 | 88 | 1013.5 |
| 20260906003722 | 25 | 86 | 8.0 | 0.0 | 0.00 | 0.00 | 0.00 | 88 | 1013.5 |
| 20260906003223 | 26 | 49 | 16.1 | 0.0 | 0.00 | 0.00 | 0.00 | 87 | 1013.5 |
| 20260906002221 | 26 | 64 | 17.7 | 0.0 | 0.00 | 0.00 | 0.00 | 86 | 1013.5 |
| 20260906001721 | 26 | 37 | 16.1 | 0.0 | 0.00 | 0.00 | 0.00 | 86 | 1013.6 |
| 20260906000721 | 27 | 83 | 17.7 | 0.0 | 0.00 | 0.00 | 0.00 | 84 | 1013.5 |
| 20260905235720 | 27 | 55 | 16.1 | 0.0 | 0.00 | 0.00 | 0.00 | 83 | 1013.5 |
| 20260905234720 | 28 | 91 | 4.8 | 0.0 | 0.00 | 0.00 | 0.00 | 81 | 1013.4 |
| 20260905234219 | 28 | 74 | 16.1 | 0.0 | 0.00 | 0.00 | 0.00 | 80 | 1013.2 |
| 20260905233718 | 28 | 61 | 8.0 | 0.0 | 0.00 | 0.00 | 0.00 | 81 | 1013.2 |
| 20260905233219 | 28 | 46 | 1.6 | 0.0 | 0.00 | 0.00 | 0.00 | 80 | 1013.0 |
| 20260905232218 | 28 | 72 | 20.9 | 0.0 | 0.00 | 0.00 | 0.00 | 79 | 1012.9 |
| 20260905231718 | 29 | 83 | 12.9 | 0.0 | 0.00 | 0.00 | 0.00 | 79 | 1012.9 |
| 20260905231218 | 29 | 44 | 14.5 | 0.0 | 0.00 | 0.00 | 0.00 | 79 | 1012.8 |
| 20260905230717 | 29 | 65 | 14.5 | 0.0 | 0.00 | 0.00 | 0.00 | 79 | 1012.8 |
| 20260905230217 | 29 | 68 | 12.9 | 0.0 | 0.00 | 0.00 | 0.00 | 79 | 1012.9 |
| 20260905225746 | 30 | 47 | 11.3 | 0.0 | 0.00 | 0.00 | 0.00 | 79 | 1013.2 |
| 20260905225717 | 30 | 61 | 4.8 | 0.0 | 0.00 | 0.00 | 0.00 | 78 | 1013.1 |
| 20260905225217 | 30 | 47 | 11.3 | 0.0 | 0.00 | 0.00 | 0.00 | 79 | 1013.2 |
| 20260905224717 | 30 | 63 | 12.9 | 0.0 | 0.00 | 0.00 | 0.00 | 78 | 1013.1 |
| 20260905224216 | 30 | 51 | 16.1 | 0.0 | 0.00 | 0.00 | 0.00 | 77 | 1013.0 |
| 20260905223215 | 30 | 43 | 6.4 | 0.0 | 0.00 | 0.00 | 0.00 | 77 | 1013.0 |
| 20260905222215 | 31 | 341 | 8.0 | 0.0 | 0.00 | 0.00 | 0.00 | 77 | 1013.0 |
| 20260905221715 | 31 | 18 | 1.6 | 0.0 | 0.00 | 0.00 | 0.00 | 79 | 1012.8 |
| 20260905221215 | 31 | 93 | 12.9 | 0.0 | 0.00 | 0.00 | 0.00 | 77 | 1012.7 |
| 20260905220214 | 31 | 86 | 6.4 | 0.0 | 0.00 | 0.00 | 0.00 | 76 | 1012.6 |
| 20260905215714 | 31 | 96 | 3.2 | 0.0 | 0.00 | 0.00 | 0.00 | 76 | 1012.6 |
| 20260905215213 | 31 | 82 | 17.7 | 0.0 | 0.00 | 0.00 | 0.00 | 74 | 1012.6 |
| 20260905214713 | 32 | 78 | 6.4 | 0.0 | 0.00 | 0.00 | 0.00 | 75 | 1012.7 |
| 20260905214213 | 32 | 230 | 3.2 | 0.0 | 0.00 | 0.00 | 0.00 | 76 | 1012.7 |
| 20260905213212 | 32 | 41 | 4.8 | 0.0 | 0.00 | 0.00 | 0.00 | 74 | 1012.5 |
| 20260905212712 | 32 | 68 | 8.0 | 0.0 | 0.00 | 0.00 | 0.00 | 71 | 1012.5 |
| 20260905212212 | 32 | 350 | 1.6 | 0.0 | 0.00 | 0.00 | 0.00 | 71 | 1012.5 |
| 20260905211711 | 32 | 227 | 3.2 | 0.0 | 0.00 | 0.00 | 0.00 | 74 | 1012.5 |
| 20260905211211 | 32 | 355 | 6.4 | 0.0 | 0.00 | 0.00 | 0.00 | 73 | 1012.5 |
| 20260905210210 | 32 | 67 | 6.4 | 0.0 | 0.00 | 0.00 | 0.00 | 74 | 1012.6 |
| 20260905205710 | 32 | 307 | 3.2 | 0.0 | 0.00 | 0.00 | 0.00 | 75 | 1012.6 |
| 20260905205210 | 32 | 253 | 1.6 | 0.0 | 0.00 | 0.00 | 0.00 | 74 | 1012.6 |
| 20260905203709 | 32 | 203 | 1.6 | 0.0 | 0.00 | 0.00 | 0.00 | 74 | 1012.8 |
| 20260905203209 | 33 | 178 | 1.6 | 0.0 | 0.00 | 0.00 | 0.00 | 71 | 1012.8 |
| 20260905202708 | 33 | 109 | 3.2 | 0.0 | 0.00 | 0.00 | 0.00 | 71 | 1012.8 |
| 20260905201708 | 33 | 13 | 6.4 | 0.0 | 0.00 | 0.00 | 0.00 | 72 | 1012.9 |
| 20260905200709 | 33 | 350 | 12.9 | 0.0 | 0.00 | 0.00 | 0.00 | 71 | 1012.9 |
| 20260905200207 | 33 | 37 | 6.4 | 0.0 | 0.00 | 0.00 | 0.00 | 72 | 1012.9 |
| 20260905195707 | 32 | 314 | 1.6 | 0.0 | 0.00 | 0.00 | 0.00 | 73 | 1012.8 |
| 20260905195206 | 33 | 33 | 3.2 | 0.0 | 0.00 | 0.00 | 0.00 | 72 | 1012.8 |
| 20260905194706 | 33 | 70 | 6.4 | 0.0 | 0.00 | 0.00 | 0.00 | 71 | 1012.8 |
| 20260905194206 | 33 | 118 | 1.6 | 0.0 | 0.00 | 0.00 | 0.00 | 72 | 1012.9 |
| 20260905193706 | 32 | 28 | 6.4 | 0.0 | 0.00 | 0.00 | 0.00 | 73 | 1012.9 |
| 20260905192705 | 33 | 90 | 9.7 | 0.0 | 0.00 | 0.00 | 0.00 | 72 | 1013.0 |
| 20260905192205 | 33 | 355 | 3.2 | 0.0 | 0.00 | 0.00 | 0.00 | 71 | 1013.1 |
| 20260905191204 | 33 | 59 | 0.0 | 0.0 | 0.00 | 0.00 | 0.00 | 70 | 1013.1 |
| 20260905190704 | 33 | 244 | 1.6 | 0.0 | 0.00 | 0.00 | 0.00 | 71 | 1013.1 |
| 20260905185703 | 33 | 189 | 4.8 | 0.0 | 0.00 | 0.00 | 0.00 | 72 | 1013.2 |
| 20260905185203 | 33 | 71 | 12.9 | 0.0 | 0.00 | 0.00 | 0.00 | 70 | 1013.3 |
| 20260905184703 | 33 | 26 | 3.2 | 0.0 | 0.00 | 0.00 | 0.00 | 69 | 1013.3 |
| 20260905184203 | 33 | 62 | 6.4 | 0.0 | 0.00 | 0.00 | 0.00 | 71 | 1013.3 |
| 20260905183202 | 33 | 337 | 3.2 | 0.0 | 0.00 | 0.00 | 0.00 | 70 | 1013.4 |
| 20260905182202 | 33 | 56 | 1.6 | 0.0 | 0.00 | 0.00 | 0.00 | 70 | 1013.4 |
| 20260905181701 | 33 | 132 | 0.0 | 0.0 | 0.00 | 0.00 | 0.00 | 73 | 1013.5 |
| 20260905181238 | 33 | 14 | 3.2 | 0.0 | 0.00 | 0.00 | 0.00 | 72 | 1013.5 |
| 20260905181201 | 33 | 14 | 3.2 | 0.0 | 0.00 | 0.00 | 0.00 | 72 | 1013.5 |
| 20260905180200 | 32 | 15 | 1.6 | 0.0 | 0.00 | 0.00 | 0.00 | 72 | 1013.6 |
| 20260905175700 | 32 | 41 | 3.2 | 0.0 | 0.00 | 0.00 | 0.00 | 73 | 1013.6 |
| 20260905175200 | 33 | 80 | 8.0 | 0.0 | 0.00 | 0.00 | 0.00 | 69 | 1013.5 |
| 20260905174159 | 33 | 77 | 4.8 | 0.0 | 0.00 | 0.00 | 0.00 | 73 | 1013.6 |
| 20260905173158 | 32 | 58 | 8.0 | 0.0 | 0.00 | 0.00 | 0.00 | 73 | 1013.6 |
| 20260905172658 | 32 | 350 | 3.2 | 0.0 | 0.00 | 0.00 | 0.00 | 75 | 1013.6 |
| 20260905172158 | 32 | 59 | 3.2 | 0.0 | 0.00 | 0.00 | 0.00 | 75 | 1013.7 |
| 20260905170657 | 32 | 145 | 1.6 | 0.0 | 0.00 | 0.00 | 0.00 | 74 | 1013.7 |
| 20260905165657 | 32 | 57 | 6.4 | 0.0 | 0.00 | 0.00 | 0.00 | 74 | 1013.9 |
| 20260905165156 | 32 | 68 | 3.2 | 0.0 | 0.00 | 0.00 | 0.00 | 75 | 1013.9 |
| 20260905164656 | 32 | 45 | 8.0 | 0.0 | 0.00 | 0.00 | 0.00 | 77 | 1013.9 |
| 20260905164156 | 31 | 61 | 1.6 | 0.0 | 0.00 | 0.00 | 0.00 | 77 | 1013.9 |
| 20260905163155 | 31 | 30 | 4.8 | 0.0 | 0.00 | 0.00 | 0.00 | 77 | 1013.9 |
| 20260905162655 | 31 | 71 | 6.4 | 0.0 | 0.00 | 0.00 | 0.00 | 76 | 1014.0 |
| 20260905161654 | 31 | 263 | 0.0 | 0.0 | 0.00 | 0.00 | 0.00 | 79 | 1014.0 |
| 20260905160153 | 31 | 29 | 4.8 | 0.0 | 0.00 | 0.00 | 0.00 | 79 | 1013.9 |
| 20260905155653 | 31 | 22 | 4.8 | 0.0 | 0.00 | 0.00 | 0.00 | 77 | 1013.9 |
| 20260905155153 | 31 | 124 | 1.6 | 0.0 | 0.00 | 0.00 | 0.00 | 79 | 1013.9 |
| 20260905154653 | 31 | 94 | 1.6 | 0.0 | 0.00 | 0.00 | 0.00 | 79 | 1013.9 |
| 20260905154152 | 31 | 323 | 4.8 | 0.0 | 0.00 | 0.00 | 0.00 | 79 | 1013.9 |
| 20260905152651 | 31 | 296 | 3.2 | 0.0 | 0.00 | 0.00 | 0.00 | 79 | 1013.7 |
| 20260905151651 | 30 | 5 | 3.2 | 0.0 | 0.00 | 0.00 | 0.00 | 80 | 1013.6 |
| 20260905150650 | 30 | 360 | 4.8 | 0.0 | 0.00 | 0.00 | 0.00 | 80 | 1013.6 |
| 20260905150151 | 30 | 293 | 1.6 | 0.0 | 0.00 | 0.00 | 0.00 | 81 | 1013.6 |
| 20260905145149 | 29 | 34 | 3.2 | 0.0 | 0.00 | 0.00 | 0.00 | 80 | 1013.6 |
| 20260905144653 | 29 | 345 | 4.8 | 0.0 | 0.00 | 0.00 | 0.00 | 80 | 1013.4 |
| 20260905144649 | 29 | 30 | 9.7 | 0.0 | 0.00 | 0.00 | 0.00 | 80 | 1013.5 |
| 20260905144451 | 29 | 345 | 4.8 | 0.0 | 0.00 | 0.00 | 0.00 | 80 | 1013.4 |
| 20260905144148 | 29 | 345 | 4.8 | 0.0 | 0.00 | 0.00 | 0.00 | 80 | 1013.4 |
| 20260905143648 | 29 | 201 | 1.6 | 0.0 | 0.00 | 0.00 | 0.00 | 81 | 1013.4 |
| 20260905143147 | 28 | 317 | 3.2 | 0.0 | 0.00 | 0.00 | 0.00 | 81 | 1013.4 |
| 20260905142648 | 28 | 17 | 4.8 | 0.0 | 0.00 | 0.00 | 0.00 | 81 | 1013.3 |
| 20260905142147 | 28 | 360 | 3.2 | 0.0 | 0.00 | 0.00 | 0.00 | 80 | 1013.4 |
| 20260905141646 | 28 | 28 | 12.9 | 0.0 | 0.00 | 0.00 | 0.00 | 81 | 1013.2 |
| 20260905141146 | 28 | 355 | 4.8 | 0.0 | 0.00 | 0.00 | 0.00 | 82 | 1013.2 |
| 20260905140647 | 28 | 5 | 9.7 | 0.0 | 0.00 | 0.00 | 0.00 | 82 | 1013.3 |
| 20260905135645 | 28 | 360 | 4.8 | 0.0 | 0.00 | 0.00 | 0.00 | 85 | 1013.3 |
| 20260905135404 | 27 | 295 | 1.6 | 0.0 | 0.00 | 0.00 | 0.00 | 88 | 1013.3 |
| 20260905135145 | 27 | 295 | 1.6 | 0.0 | 0.00 | 0.00 | 0.00 | 88 | 1013.3 |
| 20260905134647 | 27 | 277 | 1.6 | 0.0 | 0.00 | 0.00 | 0.00 | 90 | 1013.2 |
| 20260905134533 | 26 | 300 | 3.2 | 0.0 | 0.00 | 0.00 | 0.00 | 92 | 1013.2 |
| 20260905134144 | 26 | 300 | 3.2 | 0.0 | 0.00 | 0.00 | 0.00 | 92 | 1013.2 |
| 20260905133920 | 26 | 291 | 3.2 | 0.0 | 0.00 | 0.00 | 0.00 | 92 | 1013.3 |
| 20260905133644 | 26 | 291 | 3.2 | 0.0 | 0.00 | 0.00 | 0.00 | 92 | 1013.3 |
| 20260905133536 | 26 | 325 | 3.2 | 0.0 | 0.00 | 0.00 | 0.00 | 93 | 1013.3 |
| 20260905133146 | 26 | 281 | 0.0 | 0.0 | 0.00 | 0.00 | 0.00 | 93 | 1013.3 |
| 20260905133144 | 26 | 325 | 3.2 | 0.0 | 0.00 | 0.00 | 0.00 | 93 | 1013.3 |
| 20260905132543 | 25 | 294 | 4.8 | 0.0 | 0.00 | 0.00 | 0.00 | 93 | 1013.4 |
| 20260905132144 | 25 | 294 | 4.8 | 0.0 | 0.00 | 0.00 | 0.00 | 93 | 1013.4 |
| 20260905131643 | 25 | 269 | 9.7 | 0.0 | 0.00 | 0.00 | 0.00 | 93 | 1013.3 |
| 20260905131439 | 25 | 281 | 6.4 | 0.0 | 0.00 | 0.00 | 0.00 | 93 | 1013.3 |
| 20260905131143 | 25 | 281 | 6.4 | 0.0 | 0.00 | 0.00 | 0.00 | 93 | 1013.3 |
| 20260905130642 | 24 | 281 | 9.7 | 0.0 | 0.00 | 0.00 | 0.00 | 93 | 1013.2 |
| 20260905130142 | 24 | 271 | 6.4 | 0.0 | 0.00 | 0.00 | 0.00 | 94 | 1013.1 |